Flag for Canada Weather past 2 weeks in Granby, Quebec, Canada

Now
6 °F

Frigid.


Feels Like: -1 °F
Forecast: 2 / 27 °F
Wind: 3 mph from South

Location: Frelighsburg

Current Time: Jan 29, 2015 at 2:10:37 AM

Latest Report: Jan 29, 2015 at 1:00 AM


Visibility: N/A

Pressure: 30.30 "Hg

Humidity: 66%

Dew point: -3 °F

Location of GranbyLocation

Historic Weather in Granby — Graph

°F

Granby temperature yesterday

Maximum temperature yesterday: 13 °F (at 4:00 PM)
Minimum temperature yesterday: 2 °F (at 2:00 AM)
Average temperature yesterday: 7 °F

Past Weeks' High & Low Weather Summary

 TemperatureHumidityPressure
High43 °F (Jan 18, 1:00 PM)100% (Jan 18, 11:00 PM)30.63 "Hg (Jan 18, 11:00 PM)
Low-12 °F (Jan 17, 7:00 AM)34% (Jan 14, 12:00 PM)29.27 "Hg (Jan 25, 1:00 AM)
Average13 °F73%29.98 "Hg
* Reported Midnight between Jan 13 and Jan 14 — Midnight between Jan 28 and Jan 29, Granby, Weather by CustomWeather, © 2014

Note: Actual official high and low records may vary slightly from our data, if they occured in-between our weather recording intervals... More about our weather records

Advertising

Granby weather history for previous 24 hours

 ConditionsComfort  
Time TempWeatherWind HumidityBarometerVisibility
12:00 AM
Jan 29
9 °FFrigid.3 mph50%30.29 "HgN/A
11:00 PM
Jan 28
9 °FFrigid.5 mph50%30.30 "HgN/A
10:00 PM9 °FFrigid.5 mph51%30.27 "HgN/A
9:00 PM8 °FFrigid.5 mph52%30.27 "HgN/A
8:00 PM8 °FFrigid.1 mph55%30.27 "HgN/A
7:00 PM9 °FFrigid.2 mph56%30.25 "HgN/A
6:00 PM9 °FFrigid.1 mph57%30.24 "HgN/A
5:00 PM11 °FCold.2 mph49%30.22 "HgN/A
4:00 PM13 °FCold.3 mph39%30.19 "HgN/A
3:00 PM12 °FCold.6 mph43%30.17 "HgN/A
2:00 PM11 °FCold.6 mph43%30.15 "HgN/A
1:00 PM10 °FFrigid.8 mphN/A30.14 "HgN/A
12:00 PM9 °FFrigid.5 mph39%30.14 "HgN/A
11:00 AM7 °FFrigid.9 mph39%30.14 "HgN/A
10:00 AM6 °FFrigid.6 mph55%30.14 "HgN/A
9:00 AM5 °FFrigid.6 mph62%30.12 "HgN/A
8:00 AM4 °FFrigid.6 mph70%30.09 "HgN/A
7:00 AM3 °FFrigid.7 mph75%30.07 "HgN/A
6:00 AM2 °FFrigid.6 mph75%30.04 "HgN/A
5:00 AM3 °FFrigid.9 mph75%30.01 "HgN/A
4:00 AM2 °FFrigid.9 mph80%29.98 "HgN/A
3:00 AM2 °FFrigid.9 mph81%29.98 "HgN/A
2:00 AM2 °FFrigid.12 mph79%29.96 "HgN/A
Weather by CustomWeather, © 2014

See weather overviewHow to use our weather pages